Muskegon, MI

3:03 PM EST on November 22, 2019 (GMT -0500)
Muskegon County

Weather History for KMKG - September, 2019

Change the Weather History Date:

Wednesday, September 18, 2019

  Actual Average Record
Temperature  
Mean Temperature 70 °F 61 °F  
Max Temperature 81 °F 71 °F 86 °F (1906)
Min Temperature 58 °F 52 °F 34 °F (1959)
Degree Days  
Heating Degree Days 0 5  
Month to date heating degree days 20 56  
Since 1 July heating degree days 24 86  
Cooling Degree Days 5 1  
Month to date cooling degree days 53 45  
Year to date cooling degree days 598 552  
Growing Degree Days 19 (Base 50)    
Moisture  
Dew Point 58 °F    
Average Humidity 71    
Maximum Humidity 93    
Minimum Humidity 49    
Precipitation  
Precipitation 0.00 in 0.13 in 2.67 in (1983)
Month to date precipitation 3.59 2.29  
Year to date precipitation 30.72 22.87  
Snow  
Snow 0.00 in 0.00 in T in (1952)
Month to date snowfall 0.0 0.0  
Since 1 July snowfall 0.0 0.0  
Since 1 September snowfall 0.0 0.0  
Snow Depth 0.00 in    
Sea Level Pressure  
Sea Level Pressure 30.14 in    
Wind  
Wind Speed 7 mph (SE)    
Max Wind Speed 17 mph    
Max Gust Speed 22 mph    
Visibility 9 miles    
Events      
T = Trace of Precipitation, MM = Missing Value Source: NWS Daily Summary

Daily Weather History Graph

Daily Weather History Graph

Search for Another Location

Airport or City:

Astronomy

Sep. 18, 2019 Rise Set
Actual Time 7:27 AM EDT 7:49 PM EDT
Civil Twilight 6:59 AM EDT 8:18 PM EDT
Nautical Twilight 6:25 AM EDT 8:51 PM EDT
Astronomical Twilight 5:50 AM EDT 9:26 PM EDT
Moon 10:17 PM EDT (9/18) 11:36 AM EDT (9/18)
Length of Visible Light 13h 19m
Length of Day
12h 22m
Waning Gibbous, 82% of the Moon is Illuminated
Sep 18
Waning Gibbous
Sep 21
Last Quarter
Sep 28
New
Oct 5
First Quarter
Oct 13
Full

Hourly Weather History & Observations

Time (EDT) Temp. Heat Index Dew Point Humidity Pressure Visibility Wind Dir Wind Speed Gust Speed Precip Events Conditions
12:55 AM 62.1 °F - 57.9 °F 86% 30.15 in 10.0 mi ESE 6.9 mph - N/A   Clear
1:55 AM 61.0 °F - 57.0 °F 87% 30.16 in 10.0 mi East 4.6 mph - N/A   Clear
2:55 AM 61.0 °F - 57.0 °F 87% 30.16 in 10.0 mi ESE 6.9 mph - N/A   Clear
3:55 AM 61.0 °F - 57.0 °F 87% 30.15 in 9.0 mi SE 5.8 mph - N/A   Clear
4:55 AM 59.0 °F - 55.9 °F 90% 30.16 in 8.0 mi ESE 5.8 mph - N/A   Clear
5:55 AM 59.0 °F - 55.9 °F 90% 30.15 in 6.0 mi East 5.8 mph - N/A   Partly Cloudy
6:55 AM 57.9 °F - 55.9 °F 93% 30.14 in 5.0 mi ESE 5.8 mph - N/A   Partly Cloudy
7:55 AM 60.1 °F - 55.9 °F 86% 30.14 in 7.0 mi ESE 5.8 mph - N/A   Partly Cloudy
8:55 AM 64.0 °F - 57.9 °F 80% 30.15 in 10.0 mi SE 9.2 mph - N/A   Partly Cloudy
9:55 AM 68.0 °F - 57.9 °F 70% 30.16 in 10.0 mi SE 9.2 mph - N/A   Partly Cloudy
10:55 AM 72.0 °F - 59.0 °F 64% 30.17 in 10.0 mi SE 9.2 mph - N/A   Scattered Clouds
11:55 AM 77.0 °F - 60.1 °F 56% 30.17 in 10.0 mi SSE 9.2 mph - N/A   Scattered Clouds
12:55 PM 79.0 °F - 59.0 °F 50% 30.18 in 10.0 mi South 12.7 mph 21.9 mph N/A   Scattered Clouds
1:55 PM 80.1 °F 80.7 °F 59.0 °F 48% 30.17 in 10.0 mi South 11.5 mph - N/A   Scattered Clouds
2:55 PM 75.9 °F - 59.0 °F 56% 30.16 in 10.0 mi SSW 9.2 mph - N/A   Mostly Cloudy
3:55 PM 80.1 °F 80.7 °F 59.0 °F 48% 30.14 in 10.0 mi SSW 9.2 mph - N/A   Mostly Cloudy
4:55 PM 79.0 °F - 62.1 °F 56% 30.12 in 10.0 mi SW 8.1 mph - N/A   Mostly Cloudy
5:55 PM 77.0 °F - 61.0 °F 58% 30.11 in 10.0 mi SSW 6.9 mph - N/A   Mostly Cloudy
6:55 PM 75.9 °F - 62.1 °F 62% 30.09 in 10.0 mi South 5.8 mph - N/A   Mostly Cloudy
7:55 PM 72.0 °F - 62.1 °F 71% 30.10 in 10.0 mi SE 4.6 mph - N/A   Mostly Cloudy
8:55 PM 71.1 °F - 57.9 °F 63% 30.09 in 10.0 mi SE 8.1 mph - N/A   Mostly Cloudy
9:55 PM 66.9 °F - 57.0 °F 70% 30.10 in 10.0 mi SE 5.8 mph - N/A   Scattered Clouds
10:55 PM 66.0 °F - 57.0 °F 73% 30.11 in 10.0 mi ESE 5.8 mph - N/A   Scattered Clouds
11:55 PM 66.9 °F - 57.0 °F 70% 30.11 in 10.0 mi SE 6.9 mph - N/A   Clear